Flag for Canada Weather past 2 weeks in Norfolk, Ontario, Canada

Now
61 °F

Cool.


Feels Like: 61 °F
Forecast: 64 / 82 °F
Wind: No wind

Location: Delhi CS

Current Time: Aug 31, 2015 at 3:13:49 AM

Latest Report: Aug 31, 2015 at 2:00 AM


Visibility: N/A

Pressure: 30.00 "Hg

Humidity: 98%

Dew point: 60 °F

Location of NorfolkLocation

Historic Weather in Norfolk — Graph

°F

Norfolk temperature yesterday

Maximum temperature yesterday: 82 °F (at 4:00 PM)
Minimum temperature yesterday: 63 °F (at 7:00 AM)
Average temperature yesterday: 70 °F

Past Weeks' High & Low Weather Summary

 TemperatureHumidityPressure
High86 °F (Aug 17, 3:00 PM)100% (Aug 17, 3:00 AM)30.21 "Hg (Aug 17, 3:00 AM)
Low44 °F (Aug 28, 7:00 AM)32% (Aug 23, 5:00 PM)29.69 "Hg (Aug 20, 5:00 AM)
Average67 °F77%30.00 "Hg
* Reported Aug 16 1:00 AM — Aug 31 1:00 AM, Norfolk, Weather by CustomWeather, © 2015

Note: Actual official high and low records may vary slightly from our data, if they occured in-between our weather recording intervals... More about our weather records

Advertising

Norfolk weather history for previous 24 hours

 ConditionsComfort  
Time TempWeatherWind HumidityBarometerVisibility
1:00 AM
Mon, Aug 31
62 °FCool.1 mph98%30.01 "HgN/A
12:00 AM64 °FMild.1 mph97%30.01 "HgN/A
11:00 PM
Sun, Aug 30
65 °FMild.2 mph96%30.02 "HgN/A
10:00 PM66 °FMild.1 mph93%30.03 "HgN/A
9:00 PM69 °FMild.3 mph83%30.02 "HgN/A
8:00 PM72 °FMild.5 mph76%30.00 "HgN/A
7:00 PM76 °FMild.5 mph66%30.00 "HgN/A
6:00 PM78 °FWarm.7 mph60%30.00 "HgN/A
5:00 PM78 °FWarm.8 mph63%30.00 "HgN/A
4:00 PM82 °FWarm.8 mph56%30.01 "HgN/A
3:00 PM81 °FWarm.6 mph58%30.03 "HgN/A
2:00 PM81 °FWarm.6 mph57%30.04 "HgN/A
1:00 PM76 °FMild.5 mph65%30.06 "HgN/A
12:00 PM75 °FMild.3 mph66%30.08 "HgN/A
11:00 AM71 °FMild.2 mph81%30.08 "HgN/A
10:00 AM69 °FMild.3 mph80%30.07 "HgN/A
9:00 AM65 °FMild.1 mph92%30.07 "HgN/A
8:00 AM64 °FMild.No wind97%30.07 "HgN/A
7:00 AM63 °FMild.1 mph91%30.06 "HgN/A
6:00 AM63 °FMild.No wind96%30.04 "HgN/A
5:00 AM64 °FMild.1 mph88%30.03 "HgN/A
4:00 AM64 °FMild.1 mph95%30.03 "HgN/A
3:00 AM64 °FMild.1 mph95%30.04 "HgN/A
Weather by CustomWeather, © 2015

See weather overviewHow to use our weather pages